Charleston, SC

1:58 AM EDT on April 25, 2018 (GMT -0400)
Charleston Air Force Base-International

Weather History for KCHS - June, 2013

Change the Weather History Date:

Tuesday, June 4, 2013

  Actual Average Record
Temperature  
Mean Temperature 80 °F 77 °F  
Max Temperature 88 °F 87 °F 98 °F (1943)
Min Temperature 71 °F 67 °F 56 °F (1953)
Degree Days  
Heating Degree Days 0 0  
Month to date heating degree days 0 0  
Since 1 June heating degree days 0 0  
Since 1 July heating degree days 1846 1975  
Cooling Degree Days 15 12  
Month to date cooling degree days 53 47  
Year to date cooling degree days 400 409  
Since 1 June cooling degree days 53 47  
Growing Degree Days 30 (Base 50)    
Moisture  
Dew Point 72 °F    
Average Humidity 82    
Maximum Humidity 100    
Minimum Humidity 63    
Precipitation  
Precipitation T in 0.16 in 2.95 in (1962)
Month to date precipitation 2.34 0.59  
Year to date precipitation 25.78 16.90  
Sea Level Pressure  
Sea Level Pressure 29.98 in    
Wind  
Wind Speed 5 mph (ENE)    
Max Wind Speed 16 mph    
Max Gust Speed 20 mph    
Visibility 8 miles    
Events Fog , Rain , Thunderstorm    
T = Trace of Precipitation, MM = Missing Value Source: NWS Daily Summary

Daily Weather History Graph

Daily Weather History Graph

Search for Another Location

Airport or City:

Astronomy

Jun. 04, 2013 Rise Set
Actual Time 6:11 AM EDT 8:25 PM EDT
Civil Twilight 5:43 AM EDT 8:53 PM EDT
Nautical Twilight 5:08 AM EDT 9:28 PM EDT
Astronomical Twilight 4:31 AM EDT 10:05 PM EDT
Moon 3:30 AM EDT (6/4) 5:01 PM EDT (6/4)
Length of Visible Light 15h 10m
Length of Day
14h 13m
Waning Crescent, 14% of the Moon is Illuminated
Jun 4
Waning Crescent
Jun 8
New
Jun 16
First Quarter
Jun 23
Full
Jun 30
Last Quarter

Hourly Weather History & Observations

Time (EDT) Temp. Heat Index Dew Point Humidity Pressure Visibility Wind Dir Wind Speed Gust Speed Precip Events Conditions
12:56 AM 72.0 °F - 69.1 °F 91% 29.94 in 10.0 mi SSW 6.9 mph - N/A   Scattered Clouds
1:56 AM 72.0 °F - 70.0 °F 93% 29.94 in 10.0 mi SSW 5.8 mph - N/A   Scattered Clouds
2:33 AM 73.4 °F - 71.6 °F 94% 29.93 in 7.0 mi NNW 3.5 mph - N/A   Mostly Cloudy
2:56 AM 73.0 °F - 71.1 °F 93% 29.93 in 7.0 mi Calm Calm - N/A   Mostly Cloudy
3:11 AM 73.4 °F - 71.6 °F 94% 29.93 in 8.0 mi Calm Calm - N/A   Mostly Cloudy
3:56 AM 73.0 °F - 71.1 °F 93% 29.93 in 7.0 mi Calm Calm - N/A   Mostly Cloudy
4:15 AM 71.6 °F - 69.8 °F 94% 29.92 in 2.0 mi Calm Calm - N/A   Mostly Cloudy
4:56 AM 72.0 °F - 70.0 °F 93% 29.93 in 2.0 mi Calm Calm - N/A   Mostly Cloudy
5:36 AM 71.6 °F - 69.8 °F 94% 29.93 in 2.0 mi Calm Calm - N/A   Mostly Cloudy
5:56 AM 71.1 °F - 69.1 °F 93% 29.94 in 2.0 mi North 5.8 mph - N/A   Mostly Cloudy
6:10 AM 71.6 °F - 69.8 °F 94% 29.94 in 3.0 mi NNE 3.5 mph - N/A   Mostly Cloudy
6:56 AM 73.0 °F - 71.1 °F 93% 29.97 in 7.0 mi Calm Calm - N/A   Mostly Cloudy
7:06 AM 73.4 °F - 71.6 °F 94% 29.97 in 1.0 mi NW 3.5 mph - N/A   Overcast
7:11 AM 73.4 °F - 71.6 °F 94% 29.97 in 0.2 mi NW 4.6 mph - N/A Fog Fog
7:54 AM 73.4 °F - 73.4 °F 100% 29.98 in 0.8 mi NW 3.5 mph - N/A   Mostly Cloudy
7:56 AM 73.9 °F - 73.0 °F 97% 29.98 in 1.0 mi WNW 3.5 mph - N/A   Mostly Cloudy
8:01 AM 73.4 °F - 73.4 °F 100% 29.98 in 3.0 mi NW 4.6 mph - N/A   Mostly Cloudy
8:34 AM 75.2 °F - 73.4 °F 94% 29.98 in 10.0 mi WNW 5.8 mph - N/A   Partly Cloudy
8:56 AM 80.1 °F 84.2 °F 73.0 °F 79% 29.98 in 10.0 mi NW 4.6 mph - N/A   Partly Cloudy
9:56 AM 84.9 °F 91.4 °F 73.0 °F 67% 29.99 in 10.0 mi North 5.8 mph - N/A   Scattered Clouds
10:56 AM 87.1 °F 94.5 °F 73.0 °F 63% 30.00 in 10.0 mi NE 6.9 mph - N/A   Mostly Cloudy
11:56 AM 84.0 °F 91.2 °F 73.9 °F 72% 30.00 in 10.0 mi ENE 6.9 mph - N/A   Mostly Cloudy
12:56 PM 86.0 °F 92.2 °F 72.0 °F 63% 30.00 in 10.0 mi ENE 6.9 mph - 0.00 in Thunderstorm Thunderstorm
1:14 PM 86.0 °F 95.1 °F 75.2 °F 70% 30.00 in 10.0 mi SE 10.4 mph - N/A   Mostly Cloudy
1:56 PM 84.0 °F 91.9 °F 75.0 °F 74% 30.00 in 10.0 mi SSE 12.7 mph - N/A   Mostly Cloudy
2:56 PM 82.0 °F 87.4 °F 73.0 °F 74% 29.97 in 10.0 mi SSE 11.5 mph - N/A   Mostly Cloudy
3:56 PM 81.0 °F 85.2 °F 72.0 °F 74% 29.98 in 10.0 mi ESE 8.1 mph - N/A   Mostly Cloudy
4:56 PM 81.0 °F 85.2 °F 72.0 °F 74% 29.98 in 10.0 mi SE 11.5 mph - N/A   Mostly Cloudy
5:42 PM 80.6 °F 84.6 °F 71.6 °F 74% 29.99 in 10.0 mi ESE 9.2 mph - N/A   Mostly Cloudy
5:56 PM 80.1 °F 83.8 °F 72.0 °F 76% 29.99 in 10.0 mi East 9.2 mph - N/A   Mostly Cloudy
6:36 PM 78.8 °F - 71.6 °F 78% 30.01 in 10.0 mi East 4.6 mph - N/A Thunderstorm Thunderstorm
6:56 PM 79.0 °F - 73.0 °F 82% 29.99 in 10.0 mi ESE 6.9 mph - N/A Thunderstorm Thunderstorm
7:15 PM 78.8 °F - 73.4 °F 83% 30.00 in 10.0 mi SE 10.4 mph - 0.00 in Rain Light Rain
7:56 PM 79.0 °F - 73.9 °F 84% 30.02 in 10.0 mi ESE 5.8 mph - 0.00 in   Mostly Cloudy
8:56 PM 78.1 °F - 73.9 °F 87% 30.02 in 10.0 mi East 3.5 mph - N/A   Mostly Cloudy
9:56 PM 78.1 °F - 73.9 °F 87% 30.03 in 10.0 mi East 3.5 mph - N/A   Mostly Cloudy
10:56 PM 78.1 °F - 73.9 °F 87% 30.05 in 9.0 mi SE 3.5 mph - N/A   Mostly Cloudy
11:56 PM 75.9 °F - 70.0 °F 82% 30.03 in 10.0 mi ENE 3.5 mph - N/A   Scattered Clouds